This is the latest recevied weather packets stored in our database for station/object KC4JIR. If no packets are shown the sender has not sent any weather packets the latest 10 day(s).
| Time | Temp. | Humidity | Pressure | Rain* | Wind** | Luminosity | Snow |
|---|---|---|---|---|---|---|---|
| 1778016621 | 29.44° C | 41% | 1011.5 hPa | 0 mm | - | 357 W/m² | - |
| 1778016318 | 28.89° C | 42% | 1011.6 hPa | 0 mm | - | 413 W/m² | - |
| 1778016015 | 28.89° C | 40% | 1011.6 hPa | 0 mm | - | 436 W/m² | - |
| 1778015712 | 28.89° C | 43% | 1011.6 hPa | 0 mm | - | 447 W/m² | - |
| 1778015409 | 28.89° C | 41% | 1011.3 hPa | 0 mm | - | 448 W/m² | - |
| 1778015105 | 29.44° C | 41% | 1011.4 hPa | 0 mm | - | 411 W/m² | - |
| 1778014802 | 28.89° C | 43% | 1011.3 hPa | 0 mm | - | 467 W/m² | - |
| 1778014501 | 29.44° C | 42% | 1011.3 hPa | 0 mm | - | 503 W/m² | - |
| 1778014197 | 28.89° C | 44% | 1011.1 hPa | 0 mm | - | 523 W/m² | - |
| 1778013895 | 29.44° C | 42% | 1011.3 hPa | 0 mm | - | 264 W/m² | - |
| 1778013592 | 29.44° C | 41% | 1011.4 hPa | 0 mm | - | 425 W/m² | - |
| 1778013288 | 28.89° C | 43% | 1011.8 hPa | 0 mm | - | 294 W/m² | - |
| 1778012985 | 29.44° C | 41% | 1011.8 hPa | 0 mm | - | 390 W/m² | - |
| 1778012682 | 29.44° C | 43% | 1011.9 hPa | 0 mm | - | 610 W/m² | - |
| 1778012377 | 28.89° C | 42% | 1011.6 hPa | 0 mm | - | 652 W/m² | - |
| 1778012075 | 28.89° C | 40% | 1011.8 hPa | 0 mm | - | 584 W/m² | - |
| 1778011773 | 29.44° C | 44% | 1012 hPa | 0 mm | - | 583 W/m² | - |
| 1778011470 | 28.89° C | 42% | 1011.9 hPa | 0 mm | - | 602 W/m² | - |
| 1778011165 | 29.44° C | 42% | 1011.7 hPa | 0 mm | - | 609 W/m² | - |
| 1778010863 | 29.44° C | 44% | 1012.1 hPa | 0 mm | - | 649 W/m² | - |
| 1778010560 | 28.89° C | 43% | 1012.1 hPa | 0 mm | - | 664 W/m² | - |
| 1778010258 | 28.89° C | 43% | 1012.3 hPa | 0 mm | - | 657 W/m² | - |
| 1778009957 | 28.89° C | 42% | 1012.3 hPa | 0 mm | - | 657 W/m² | - |
| 1778009655 | 28.33° C | 45% | 1012.4 hPa | 0 mm | - | 669 W/m² | - |
| 1778009353 | 28.89° C | 46% | 1012.4 hPa | 0 mm | - | 567 W/m² | - |
* Rain latest hour (hover to see other rain measurements)
** Current wind speed in m/s (hover to see current wind gust speed)